Location: Newark
(6.1167°N, 1.2167°E)
Time: 08:02:49
(UTC+00:00)

Hubble Space Telescope - Visible Passes

Search period start: 21 October 2019 00:00
Search period end: 31 October 2019 00:00
Orbit: 536 x 540 km, 28.5° (Epoch: 20 October)

Date Brightness Start Highest point End Pass type
(mag) Time Alt. Az. Time Alt. Az. Time Alt. Az.
21 Oct 3.3 04:21:59 10° SSW 04:24:44 17° SSE 04:27:28 10° ESE visible
21 Oct 3.6 17:56:47 10° WSW 17:58:50 13° SSW 18:00:53 10° S visible
22 Oct 2.8 04:11:57 15° SSW 04:14:11 24° SSE 04:17:31 10° E visible
23 Oct 2.1 04:02:50 30° S 04:03:37 33° SSE 04:07:20 10° E visible
24 Oct 1.8 03:53:41 42° ESE 03:53:41 42° ESE 03:57:00 10° ENE visible
25 Oct 2.6 03:44:28 28° ENE 03:44:28 28° ENE 03:46:33 10° ENE visible
26 Oct 3.4 03:35:10 16° ENE 03:35:10 16° ENE 03:36:01 10° ENE visible
26 Oct 2.6 05:10:40 10° WNW 05:13:13 16° NNW 05:15:45 10° NNE visible
27 Oct 2.9 05:01:09 10° NW 05:02:45 12° NNW 05:04:26 10° N visible
